Weather History for Deelen, Netherlands

Change the Weather History Date:

Saturday, June 22, 2013

  Actual Average Record
Temperature  
Mean Temperature 62 °F -  
Max Temperature 68 °F 69 °F 78 °F (2008)
Min Temperature 57 °F 56 °F 44 °F (2014)
Degree Days  
Heating Degree Days 2    
Growing Degree Days 12 (Base 50)    
Moisture  
Dew Point 55 °F    
Average Humidity 80    
Maximum Humidity 94    
Minimum Humidity 60    
Precipitation  
Precipitation 0.00 in - - ()
Sea Level Pressure  
Sea Level Pressure 29.86 in    
Wind  
Wind Speed 12 mph ()    
Max Wind Speed 22 mph    
Max Gust Speed 31 mph    
Visibility 6.2 miles    
Events Rain    
Averages and records for this station are not official NWS values.
T = Trace of Precipitation, MM = Missing Value Source: Averaged Metar Reports

Daily Weather History Graph

Daily Weather History Graph

Search for Another Location

Airport:

Trip Planner

Search our weather history database for the weather conditions in past years. The results will help you decide how hot, cold, wet, or windy it might be!

Date:

Astronomy

Jun. 22, 2013 Rise Set
Actual Time 5:16 AM CEST 10:00 PM CEST
Civil Twilight 4:27 AM CEST 10:49 PM CEST
Nautical Twilight 3:08 AM CEST 12:08 AM CEST
Astronomical Twilight Sun does not rise Sun does not rise
Moon 8:50 PM CEST (6/22) 4:22 AM CEST (6/22)
Length of Visible Light 18h 22m
Length of Day
16h 44m
Waxing Gibbous, 98% of the Moon is Illuminated
Jun 22
Waxing Gibbous
Jun 23
Full
Jun 30
Last Quarter
Jul 8
New
Jul 16
First Quarter

Hourly Weather History & Observations

Time (CEST) Temp. Dew Point Humidity Pressure Visibility Wind Dir Wind Speed Gust Speed Precip Events Conditions
12:25 AM 59.0 °F 53.6 °F 82% 29.92 in 6.2 mi SSW 9.2 mph - N/A   Overcast
12:55 AM 59.0 °F 53.6 °F 82% 29.92 in 6.2 mi SSW 10.4 mph - N/A   Mostly Cloudy
1:25 AM 59.0 °F 53.6 °F 82% 29.92 in 6.2 mi SSW 9.2 mph - N/A   Overcast
1:55 AM 59.0 °F 53.6 °F 82% 29.92 in 6.2 mi SSW 10.4 mph - N/A   Overcast
2:25 AM 59.0 °F 53.6 °F 82% 29.92 in 6.2 mi SSW 11.5 mph - N/A   Overcast
2:55 AM 59.0 °F 53.6 °F 82% 29.92 in 6.2 mi SSW 11.5 mph - N/A   Overcast
3:25 AM 59.0 °F 53.6 °F 82% 29.92 in 6.2 mi SSW 10.4 mph - N/A   Mostly Cloudy
3:55 AM 59.0 °F 53.6 °F 82% 29.92 in 6.2 mi SSW 12.7 mph - N/A   Overcast
4:25 AM 59.0 °F 53.6 °F 82% 29.92 in 6.2 mi SSW 12.7 mph - N/A   Overcast
4:55 AM 59.0 °F 53.6 °F 82% 29.92 in 6.2 mi SSW 12.7 mph - N/A   Overcast
5:25 AM 59.0 °F 53.6 °F 82% 29.92 in 6.2 mi SSW 11.5 mph - N/A   Overcast
5:55 AM 59.0 °F 55.4 °F 88% 29.92 in 6.2 mi SSW 11.5 mph - N/A   Overcast
6:25 AM 59.0 °F 55.4 °F 88% 29.92 in 6.2 mi SSW 10.4 mph - N/A   Overcast
6:55 AM 59.0 °F 55.4 °F 88% 29.89 in 6.2 mi SSW 11.5 mph - N/A   Overcast
7:25 AM 59.0 °F 53.6 °F 82% 29.89 in 6.2 mi SSW 12.7 mph - N/A   Scattered Clouds
7:55 AM 59.0 °F 55.4 °F 88% 29.89 in 6.2 mi SSW 13.8 mph - N/A   Mostly Cloudy
8:25 AM 60.8 °F 53.6 °F 77% 29.92 in 6.2 mi SSW 13.8 mph - N/A   Overcast
8:55 AM 62.6 °F 55.4 °F 77% 29.89 in 6.2 mi SSW 12.7 mph - N/A   Mostly Cloudy
9:25 AM 62.6 °F 55.4 °F 77% 29.89 in 6.2 mi SSW 13.8 mph - N/A   Overcast
9:55 AM 64.4 °F 55.4 °F 73% 29.89 in 6.2 mi SSW 15.0 mph - N/A   Mostly Cloudy
10:25 AM 64.4 °F 55.4 °F 73% 29.89 in 6.2 mi South 13.8 mph - N/A   Mostly Cloudy
10:55 AM 66.2 °F 57.2 °F 73% 29.86 in 6.2 mi SSW 15.0 mph 27.6 mph N/A   Mostly Cloudy
11:25 AM 68.0 °F 53.6 °F 60% 29.86 in 6.2 mi SSW 20.7 mph - N/A   Mostly Cloudy
11:55 AM 68.0 °F 53.6 °F 60% 29.86 in 6.2 mi SSW 17.3 mph 28.8 mph N/A   Mostly Cloudy
12:25 PM 68.0 °F 55.4 °F 64% 29.86 in 6.2 mi South 16.1 mph 31.1 mph N/A   Mostly Cloudy
12:55 PM 68.0 °F 53.6 °F 60% 29.83 in 6.2 mi SSW 18.4 mph - N/A   Mostly Cloudy
1:25 PM 68.0 °F 57.2 °F 68% 29.83 in 6.2 mi SSW 15.0 mph - N/A Rain Light Rain
1:55 PM 64.4 °F 57.2 °F 77% 29.83 in 6.2 mi SSW 15.0 mph - N/A Rain Light Rain Showers
2:25 PM 64.4 °F 57.2 °F 77% 29.83 in 6.2 mi SSW 16.1 mph 27.6 mph N/A Rain Light Rain
2:55 PM 66.2 °F 57.2 °F 73% 29.83 in 6.2 mi SSW 15.0 mph - N/A   Mostly Cloudy
3:25 PM 64.4 °F 53.6 °F 68% 29.83 in 6.2 mi SSW 20.7 mph - N/A   Overcast
3:55 PM 60.8 °F 55.4 °F 82% 29.83 in - SW 21.9 mph - N/A   Haze
4:25 PM 60.8 °F 57.2 °F 88% 29.83 in 6.2 mi SSW 16.1 mph - N/A   Overcast
4:55 PM 62.6 °F 55.4 °F 77% 29.83 in 6.2 mi SSW 16.1 mph - N/A   Mostly Cloudy
5:25 PM 60.8 °F 55.4 °F 82% 29.83 in 6.2 mi SSW 15.0 mph - N/A   Mostly Cloudy
5:55 PM 60.8 °F 55.4 °F 82% 29.83 in 6.2 mi SSW 17.3 mph - N/A   Overcast
6:25 PM 60.8 °F 55.4 °F 82% 29.80 in 6.2 mi SSW 12.7 mph - N/A   Overcast
6:55 PM 62.6 °F 53.6 °F 72% 29.80 in 6.2 mi SSW 16.1 mph - N/A   Overcast
7:25 PM 60.8 °F 55.4 °F 82% 29.80 in 6.2 mi SSW 15.0 mph - N/A   Drizzle
7:55 PM 60.8 °F 55.4 °F 82% 29.80 in 4.3 mi SSW 18.4 mph - N/A Rain Light Rain
8:25 PM 59.0 °F 57.2 °F 94% 29.80 in 6.2 mi South 12.7 mph - N/A   Overcast
8:55 PM 60.8 °F 57.2 °F 88% 29.77 in 6.2 mi South 12.7 mph - N/A   Mostly Cloudy
9:25 PM 60.8 °F 55.4 °F 82% 29.77 in 6.2 mi South 15.0 mph - N/A   Mostly Cloudy
9:55 PM 59.0 °F 57.2 °F 94% 29.77 in 6.2 mi South 13.8 mph - N/A Rain Light Rain
10:25 PM 59.0 °F 57.2 °F 94% 29.80 in 6.2 mi SSW 16.1 mph 31.1 mph N/A   Mostly Cloudy
10:55 PM 57.2 °F 53.6 °F 88% 29.80 in 6.2 mi SSW 16.1 mph - N/A Rain Light Rain
11:25 PM 57.2 °F 53.6 °F 88% 29.80 in 6.2 mi SSW 10.4 mph - N/A   Overcast
11:55 PM 57.2 °F 53.6 °F 88% 29.80 in 6.2 mi SSW 10.4 mph - N/A   Mostly Cloudy